Regional Weather Roundup
Issued by NWS Cleveland, OH

Home | Current Version | Previous Version | Graphics & Text | Print | Product List | Glossary On
Versions: 1 2 3 4 5 6 7 8 9 10 11 12 13 14 15 16 17 18 19 20 21 22 23 24 25 26 27 28 29 30 31 32 33 34 35 36 37 38 39 40 41 42 43 44 45 46 47 48 49 50
352
ASUS41 KCLE 240310
RWRCLE
OHIO REGIONAL WEATHER ROUNDUP
NATIONAL WEATHER SERVICE WILMINGTON, OH
1100 PM EDT THU MAR 23 2017

NOTE: "FAIR" INDICATES FEW OR NO CLOUDS BELOW 12,000 FEET WITH NO
SIGNIFICANT WEATHER AND/OR OBSTRUCTIONS TO VISIBILITY.

OHZ001>008-015>018-024>027-034-035-043-044-240400-
   NORTHWEST OHIO

CITY           SKY/WX    TMP DP  RH WIND       PRES   REMARKS
DEFIANCE       CLOUDY    47  24  40 SE7       30.16F
FINDLAY        CLOUDY    46  22  38 SE10      30.17F
TOLEDO EXPRESS CLOUDY    39  28  64 E6        30.18F
TOLEDO EXEC    CLOUDY    38  32  79 SE5       30.20F
LIMA           CLOUDY    47  28  47 S10       30.17F
$$

OHZ009>014-019>023-028>033-038-089-240400-
   NORTHEAST OHIO

CITY           SKY/WX    TMP DP  RH WIND       PRES   REMARKS
CLE-HOPKINS    FAIR      43  10  26 S8        30.27S
CLE-LAKEFRONT  FAIR      45   9  23 SE8       30.24S
CUY CO. ARPT   MOCLDY    45   9  23 S9        30.25F
LORAIN-ELYRIA  FAIR      41  11  29 S7        30.24S
ASHTABULA      FAIR      41  10  28 SE9       30.26F
AKRON-CANTON   FAIR      42  10  27 SE10      30.25F
WOOSTER        FAIR      37  18  46 S7        30.25F
MANSFIELD      FAIR      44  13  28 SE10      30.22F
YOUNGSTOWN     FAIR      41   5  22 SE10      30.25F
$$

OHZ042-051>053-060>062-070>072-077>081-240400-
  SOUTHWEST OHIO

CITY           SKY/WX    TMP DP  RH WIND       PRES   REMARKS
CINC-COVINGTON MOCLDY    53  33  46 SE7       30.21F
CINC-LUNKEN    CLOUDY    49  38  65 SW3       30.23F
HAMILTON       FAIR      52  33  48 CALM      30.22F
DAYTON         CLOUDY    50  28  42 S7        30.21S
WRIGHT-PAT AFB CLOUDY    50  27  39 S7        30.21S
DAYTON GENERAL MOCLDY    51  30  44 S8        30.20F
WILMINGTON     CLOUDY    50  34  54 S5        30.22F
$$

OHZ036-037-039>041-045>050-054>059-063>069-073>076-082>088-240400-
  CENTRAL AND SOUTHEAST OHIO

CITY           SKY/WX    TMP DP  RH WIND       PRES   REMARKS
COLUMBUS       MOCLDY    48  20  32 SE7       30.23F
OSU AIRPORT    MOCLDY    49  22  34 SE5       30.22F
BOLTON FIELD   CLOUDY    48  26  43 S6        30.23F
RICKENBACK AFB FAIR      46  23  40 SE7       30.23F
NEWARK         FAIR      37  27  67 CALM      30.24F
MARION         FAIR      45  17  32 S12       30.21F
LANCASTER      FAIR      43  26  51 S3        30.25F
ZANESVILLE     FAIR      42  19  39 CALM      30.26F
NEW PHILLY     FAIR      41  14  33 SE6       30.27F
$$




USA.gov is the U.S. government's official web portal to all federal, state and local government web resources and services.